This is the latest recevied weather packets stored in our database for station/object DG7AA-13. If no packets are shown the sender has not sent any weather packets the latest 1 day(s).
| Time | Temp. | Humidity | Pressure | Rain* | Wind** | Luminosity | Snow |
|---|---|---|---|---|---|---|---|
| 1778007936 | 13.89° C | 92% | - | 0 mm | 0.45 m/s, 356° | - | - |
| 1778007326 | 13.89° C | 91% | - | 0 mm | 0.89 m/s, 338° | - | - |
| 1778006723 | 13.89° C | 90% | - | 0 mm | 0.45 m/s, 334° | - | - |
| 1778006124 | 14.44° C | 90% | - | 0 mm | 0.89 m/s, 341° | - | - |
| 1778005522 | 14.44° C | 90% | - | 0 mm | 0.45 m/s, 346° | - | - |
| 1778004931 | 14.44° C | 89% | - | 0 mm | 0.89 m/s, 335° | - | - |
| 1778004326 | 14.44° C | 89% | - | 0 mm | 0.89 m/s, 335° | - | - |
| 1778003746 | 14.44° C | 89% | - | 0 mm | 0.89 m/s, 346° | - | - |
| 1778003123 | 15° C | 88% | - | 0 mm | 0.89 m/s, 340° | - | - |
| 1778002526 | 15° C | 88% | - | 0 mm | 0.89 m/s, 348° | - | - |
| 1778001925 | 15° C | 88% | - | 0 mm | 0.45 m/s, 334° | - | - |
| 1778001320 | 15° C | 88% | - | 0 mm | 0.89 m/s, 346° | - | - |
| 1778000719 | 15° C | 87% | - | 0 mm | 0.89 m/s, 331° | - | - |
| 1778000130 | 15.56° C | 87% | - | 0 mm | 0.45 m/s, 344° | - | - |
| 1777999527 | 15.56° C | 86% | - | 0 mm | 0.89 m/s, 344° | - | - |
| 1777998930 | 15.56° C | 86% | - | 0 mm | 0.45 m/s, 350° | - | - |
| 1777998325 | 15.56° C | 86% | - | 0 mm | 0.89 m/s, 346° | - | - |
| 1777997730 | 15.56° C | 85% | - | 0 mm | 1.34 m/s, 338° | - | - |
| 1777997126 | 15.56° C | 85% | - | 0 mm | 0.89 m/s, 342° | - | - |
| 1777996522 | 15.56° C | 85% | - | 0 mm | 1.34 m/s, 343° | - | - |
| 1777995926 | 16.11° C | 85% | - | 0 mm | 0.89 m/s, 343° | - | - |
| 1777995334 | 16.11° C | 85% | - | 0 mm | 0.89 m/s, 338° | - | - |
| 1777994723 | 16.11° C | 83% | - | 0 mm | 0.89 m/s, 339° | - | - |
| 1777994131 | 16.11° C | 83% | - | 0 mm | 1.34 m/s, 342° | - | - |
| 1777993521 | 16.11° C | 82% | - | 0 mm | 1.79 m/s, 347° | - | - |
* Rain latest hour (hover to see other rain measurements)
** Current wind speed in m/s (hover to see current wind gust speed)